GW5963 Weather Reports


Display with metric or nautical units.
time (UTC)temp
F
wind
direction
speed
MPH
gust
MPH
rain 1hr
in
rain 24hr
in
rain mn
in
humidity
%
barometer
mb
20260510054519 52 160 0.0 0.0 0.00 0.00 0.00 94 1008.6
20260510054018 51 160 0.0 0.0 0.00 0.00 0.00 94 1008.6
20260510053520 51 160 0.0 0.0 0.00 0.00 0.00 94 1008.6
20260510053019 52 160 0.0 0.0 0.00 0.00 0.00 94 1008.7
20260510052519 52 160 0.0 0.0 0.00 0.00 0.00 94 1008.7
20260510052019 52 160 0.0 0.0 0.00 0.00 0.00 94 1008.6
20260510051531 52 160 0.0 0.0 0.00 0.00 0.00 94 1008.6
20260510051019 52 160 0.0 0.0 0.00 0.00 0.00 94 1008.6
20260510050519 52 160 0.0 0.0 0.00 0.00 0.00 94 1008.7
20260510050024 52 160 0.0 0.0 0.00 0.00 0.00 94 1008.6
20260510045519 52 160 0.0 0.0 0.00 0.00 0.00 94 1008.6
20260510045019 52 160 0.0 0.0 0.00 0.00 0.00 93 1008.7
20260510044518 52 160 0.0 0.0 0.00 0.00 0.00 93 1008.6
20260510044019 52 160 0.0 0.0 0.00 0.00 0.00 93 1008.6
20260510043519 52 160 0.0 0.0 0.00 0.00 0.00 93 1008.4
20260510043019 52 160 0.0 0.0 0.00 0.00 0.00 93 1008.4
20260510042520 53 160 0.0 0.0 0.00 0.00 0.00 93 1008.4
20260510042031 53 160 0.0 0.0 0.00 0.00 0.00 93 1008.3
20260510041520 54 160 0.0 0.0 0.00 0.00 0.00 93 1008.4
20260510041019 54 160 0.0 0.0 0.00 0.00 0.00 93 1008.3
20260510040519 54 160 0.0 0.0 0.00 0.00 0.00 93 1008.3
20260510040019 54 160 0.0 0.0 0.00 0.00 0.00 93 1008.3
20260510035519 54 160 0.0 0.0 0.00 0.00 0.00 93 1008.4
20260510035019 54 160 0.0 0.0 0.00 0.00 0.00 93 1008.4
20260510034519 54 160 0.0 0.0 0.00 0.00 0.00 93 1008.4
20260510034019 55 160 0.0 0.0 0.00 0.00 0.00 93 1008.4
20260510033519 55 160 0.0 0.0 0.00 0.00 0.00 93 1008.4
20260510033030 55 160 0.0 1.0 0.00 0.00 0.00 93 1008.5
20260510032520 55 160 0.0 1.0 0.00 0.00 0.00 93 1008.5
20260510032019 55 161 0.0 0.0 0.00 0.00 0.00 93 1008.5
20260510031520 55 161 0.0 0.0 0.00 0.00 0.00 93 1008.7
20260510031019 55 161 0.0 0.0 0.00 0.00 0.00 93 1008.7
20260510030519 55 161 0.0 0.0 0.00 0.00 0.00 93 1008.7
20260510030019 56 161 0.0 0.0 0.00 0.00 0.00 93 1008.8
20260510025519 56 161 0.0 0.0 0.00 0.00 0.00 93 1008.8
20260510025019 56 161 0.0 0.0 0.00 0.00 0.00 93 1008.8
20260510024519 56 161 0.0 0.0 0.00 0.00 0.00 93 1008.8
20260510024019 56 161 0.0 0.0 0.00 0.00 0.00 93 1008.8
20260510023520 56 161 0.0 0.0 0.00 0.00 0.00 93 1008.9
20260510023020 56 161 0.0 0.0 0.00 0.00 0.00 93 1008.8
20260510022519 56 161 0.0 0.0 0.00 0.00 0.00 93 1008.9
20260510022019 56 161 0.0 0.0 0.00 0.00 0.00 93 1008.8
20260510021531 55 161 0.0 0.0 0.00 0.00 0.00 93 1008.8
20260510021019 55 161 0.0 0.0 0.00 0.00 0.00 93 1008.8
20260510020519 56 161 0.0 0.0 0.00 0.00 0.00 93 1008.8
20260510020019 55 161 0.0 0.0 0.00 0.00 0.00 93 1008.8
20260510015520 55 161 0.0 0.0 0.00 0.00 0.00 93 1008.8
20260510015031 55 161 0.0 0.0 0.00 0.00 0.00 92 1008.8
20260510014519 55 161 0.0 0.0 0.00 0.00 0.00 93 1008.8
20260510014020 55 161 0.0 0.0 0.00 0.00 0.00 92 1008.9
20260510013520 55 161 0.0 0.0 0.00 0.00 0.00 92 1008.9
20260510013020 55 161 0.0 0.0 0.00 0.00 0.00 92 1008.9
20260510012519 54 161 0.0 0.0 0.00 0.00 0.00 92 1008.9
20260510012031 54 161 0.0 0.0 0.00 0.00 0.00 92 1009.0
20260510011520 54 161 0.0 0.0 0.00 0.00 0.00 92 1008.9
20260510011020 54 161 0.0 0.0 0.00 0.00 0.00 92 1008.9
20260510010520 54 161 0.0 0.0 0.00 0.00 0.00 92 1009.0
20260510010020 54 161 0.0 0.0 0.00 0.00 0.00 91 1009.0
20260510005520 54 161 0.0 0.0 0.00 0.00 0.00 91 1009.1
20260510005030 54 161 0.0 0.0 0.00 0.00 0.00 90 1009.1
20260510004519 55 161 0.0 0.0 0.00 0.00 0.00 90 1009.1
20260510004031 55 161 0.0 0.0 0.00 0.00 0.00 91 1009.1
20260510003519 54 161 0.0 0.0 0.00 0.00 0.00 89 1009.1
20260510003020 55 161 0.0 0.0 0.00 0.00 0.00 89 1009.1
20260510002520 55 161 0.0 0.0 0.00 0.00 0.00 89 1009.0
20260510002020 55 161 0.0 0.0 0.00 0.00 0.00 89 1009.1
20260510001531 56 161 0.0 0.0 0.00 0.00 0.00 89 1009.1
20260510000520 56 161 0.0 1.0 0.00 0.00 0.00 89 1009.1
20260510000032 57 162 0.0 1.0 0.00 0.00 0.00 89 1009.0
20260509235521 57 131 0.0 0.0 0.00 0.00 0.00 89 1008.9
20260509235020 57 161 0.0 2.0 0.00 0.00 0.00 89 1009.1
20260509234521 57 258 0.0 1.0 0.00 0.00 0.00 89 1009.1
20260509234020 57 258 0.0 2.0 0.00 0.00 0.00 89 1009.0
20260509233520 57 151 1.0 2.0 0.00 0.00 0.00 89 1009.0
20260509233031 57 224 0.0 2.0 0.00 0.00 0.00 88 1009.0
20260509232521 57 160 0.0 1.0 0.00 0.00 0.00 87 1009.1
20260509232020 57 120 0.0 2.0 0.00 0.00 0.00 86 1009.1
20260509231532 58 102 0.0 2.0 0.00 0.00 0.00 86 1009.2
20260509231021 58 85 0.0 0.0 0.00 0.00 0.00 85 1009.3
20260509230518 58 137 0.0 0.0 0.00 0.00 0.00 85 1009.3
20260509230021 59 113 0.0 0.0 0.00 0.00 0.00 85 1009.4
20260509225520 59 113 0.0 0.0 0.00 0.01 0.00 84 1009.4
20260509225021 59 112 0.0 0.0 0.00 0.01 0.00 84 1009.4
20260509224519 60 113 0.0 1.0 0.00 0.01 0.00 83 1009.4
20260509224019 60 112 0.0 2.0 0.00 0.01 0.00 83 1009.5
20260509223519 60 106 0.0 2.0 0.00 0.01 0.00 83 1009.5
20260509223020 60 105 0.0 2.0 0.00 0.01 0.00 83 1009.5
20260509222531 60 104 0.0 2.0 0.00 0.01 0.00 83 1009.5
20260509222019 61 94 1.0 3.0 0.00 0.01 0.00 84 1009.6
20260509221520 61 140 1.0 3.0 0.00 0.01 0.00 84 1009.5
20260509221019 61 140 0.0 1.0 0.00 0.01 0.00 84 1009.6
20260509220521 61 141 0.0 3.0 0.00 0.01 0.00 85 1009.5
20260509220020 61 147 1.0 7.0 0.00 0.01 0.00 86 1009.4
20260509215519 61 150 2.0 7.0 0.00 0.01 0.01 88 1009.5
20260509215019 62 139 0.0 2.0 0.00 0.01 0.01 89 1009.5
20260509214520 62 13 0.0 2.0 0.00 0.01 0.01 90 1009.5
20260509214019 62 138 0.0 2.0 0.00 0.01 0.01 90 1009.6
20260509213531 63 93 0.0 3.0 0.00 0.01 0.01 90 1009.6
20260509213019 63 75 1.0 5.0 0.00 0.01 0.01 90 1009.7
20260509212519 62 77 2.0 5.0 0.00 0.01 0.01 90 1009.6
20260509212020 62 115 2.0 5.0 0.00 0.01 0.01 90 1009.8
20260509211531 62 73 1.0 5.0 0.00 0.01 0.01 90 1009.9
20260509211030 62 141 2.0 5.0 0.00 0.01 0.01 91 1010.1
20260509210521 62 111 1.0 2.0 0.00 0.01 0.01 90 1010.1
20260509210019 61 129 1.0 3.0 0.00 0.01 0.01 90 1010.1
20260509205519 62 121 1.0 3.0 0.00 0.01 0.01 91 1010.0
20260509205019 62 134 0.0 3.0 0.00 0.01 0.01 91 1010.1
20260509204520 62 134 0.0 3.0 0.00 0.01 0.01 90 1010.1
20260509204020 62 195 0.0 0.0 0.00 0.01 0.01 91 1009.9
20260509203519 61 131 0.0 0.0 0.00 0.01 0.01 90 1009.8
20260509203020 61 131 0.0 0.0 0.00 0.01 0.01 90 1009.8
20260509202519 61 131 0.0 0.0 0.00 0.01 0.01 89 1009.8
20260509202021 61 131 0.0 0.0 0.00 0.01 0.01 89 1009.7
20260509201020 62 131 0.0 0.0 0.00 0.01 0.01 89 1009.6
20260509200519 62 131 0.0 0.0 0.00 0.01 0.01 88 1009.6
20260509200019 62 131 0.0 0.0 0.00 0.01 0.01 88 1009.5
20260509195519 62 131 0.0 0.0 0.00 0.01 0.01 88 1009.5
20260509195019 62 131 0.0 0.0 0.00 0.01 0.01 88 1009.5
20260509194520 62 131 0.0 0.0 0.00 0.01 0.01 87 1009.4
20260509194020 62 131 0.0 0.0 0.00 0.01 0.01 87 1009.4
20260509193519 62 131 0.0 0.0 0.00 0.01 0.01 86 1009.3
20260509193019 63 131 0.0 0.0 0.00 0.01 0.01 86 1009.2
20260509192520 63 131 0.0 0.0 0.00 0.01 0.01 85 1009.1
20260509192020 63 131 0.0 0.0 0.00 0.01 0.01 85 1009.1
20260509191520 64 131 0.0 0.0 0.00 0.01 0.01 85 1009.1
20260509191019 64 131 0.0 0.0 0.00 0.01 0.01 84 1009.0
20260509190520 65 131 0.0 0.0 0.00 0.01 0.01 83 1009.1
20260509190021 65 131 0.0 0.0 0.00 0.01 0.01 83 1008.9
20260509185520 66 131 0.0 0.0 0.00 0.01 0.01 82 1008.9
20260509185020 66 131 0.0 1.0 0.00 0.01 0.01 81 1008.8
20260509184531 66 131 0.0 0.0 0.00 0.01 0.01 79 1008.9
20260509184020 67 131 0.0 1.0 0.00 0.01 0.01 79 1008.8
20260509183519 67 131 0.0 1.0 0.00 0.01 0.01 79 1008.7
20260509183019 67 105 0.0 1.0 0.00 0.01 0.01 78 1008.6
20260509182519 67 85 0.0 1.0 0.00 0.01 0.01 77 1008.7
20260509182018 68 85 0.0 2.0 0.00 0.01 0.01 77 1008.7
20260509181521 68 82 0.0 2.0 0.00 0.01 0.01 77 1008.5
20260509181020 68 243 0.0 2.0 0.00 0.01 0.01 76 1008.5
20260509180020 69 92 0.0 1.0 0.00 0.01 0.01 76 1008.3
20260509175520 69 189 0.0 1.0 0.00 0.01 0.01 75 1008.1
20260509175021 69 248 0.0 1.0 0.00 0.01 0.01 75 1008.3
20260509174520 69 248 0.0 2.0 0.00 0.01 0.01 75 1008.3
20260509174020 69 248 1.0 2.0 0.00 0.01 0.01 75 1008.2
20260509173521 69 259 0.0 2.0 0.00 0.01 0.01 75 1008.0
20260509173020 69 129 0.0 1.0 0.00 0.01 0.01 74 1008.0
20260509172522 69 128 0.0 1.0 0.00 0.01 0.01 75 1008.1
20260509172020 69 102 0.0 2.0 0.00 0.01 0.01 75 1008.1
20260509171521 69 226 1.0 2.0 0.00 0.01 0.01 74 1008.2
20260509171031 69 89 0.0 1.0 0.00 0.01 0.01 74 1008.2
20260509170520 69 89 0.0 1.0 0.00 0.01 0.01 74 1008.0
20260509170020 70 89 0.0 1.0 0.00 0.01 0.01 73 1008.2
20260509165520 70 89 0.0 1.0 0.00 0.01 0.01 74 1008.3
20260509165021 70 78 0.0 1.0 0.00 0.01 0.01 73 1008.3
20260509164521 70 78 0.0 3.0 0.00 0.01 0.01 72 1008.3
20260509164020 70 77 0.0 3.0 0.00 0.01 0.01 71 1008.3
20260509163520 71 154 0.0 1.0 0.00 0.01 0.01 71 1008.4
20260509163021 71 88 0.0 2.0 0.00 0.01 0.01 71 1008.3
20260509162531 72 230 0.0 2.0 0.00 0.01 0.01 70 1008.3
20260509162020 72 98 0.0 3.0 0.00 0.01 0.01 71 1008.3
20260509161521 73 270 1.0 3.0 0.00 0.01 0.01 68 1008.4
20260509161020 73 281 1.0 2.0 0.00 0.01 0.01 68 1008.4
20260509160520 73 97 0.0 2.0 0.00 0.01 0.01 69 1008.5
20260509160020 73 76 0.0 3.0 0.00 0.01 0.01 70 1008.4
20260509155521 73 305 1.0 4.0 0.00 0.01 0.01 69 1008.4
20260509155020 74 261 1.0 4.0 0.00 0.01 0.01 68 1008.4
20260509154520 74 120 1.0 3.0 0.00 0.01 0.01 67 1008.4
20260509154021 74 120 1.0 3.0 0.00 0.01 0.01 67 1008.4
20260509153532 75 270 1.0 5.0 0.00 0.01 0.01 68 1008.3
20260509153021 75 98 1.0 6.0 0.00 0.01 0.01 68 1008.4
20260509152531 75 110 1.0 6.0 0.00 0.01 0.01 68 1008.4
20260509152020 75 231 1.0 3.0 0.00 0.01 0.01 68 1008.4
20260509151521 74 314 1.0 5.0 0.00 0.01 0.01 71 1008.4
20260509151020 74 283 2.0 5.0 0.00 0.01 0.01 70 1008.8
20260509150520 74 352 1.0 3.0 0.00 0.01 0.01 70 1008.7
20260509150020 73 282 1.0 5.0 0.00 0.01 0.01 72 1008.7
20260509145521 73 235 2.0 5.0 0.00 0.01 0.01 71 1008.8
20260509145021 73 347 1.0 4.0 0.00 0.01 0.01 71 1008.8
20260509144520 74 240 1.0 4.0 0.00 0.01 0.01 64 1008.9
20260509144032 74 82 0.0 2.0 0.00 0.01 0.01 63 1008.6
20260509143532 74 314 0.0 3.0 0.00 0.01 0.01 63 1008.8
20260509143021 74 321 0.0 4.0 0.00 0.01 0.01 65 1008.7
20260509142521 73 154 2.0 4.0 0.00 0.01 0.01 61 1008.7
20260509142031 74 146 1.0 2.0 0.00 0.01 0.01 62 1008.7
20260509141520 74 297 0.0 1.0 0.00 0.01 0.01 68 1008.8
20260509141020 74 124 0.0 2.0 0.00 0.01 0.01 63 1008.8
20260509140519 74 116 0.0 1.0 0.00 0.01 0.01 67 1008.9
20260509140020 73 136 0.0 2.0 0.00 0.01 0.01 68 1008.9
20260509135519 73 127 1.0 2.0 0.00 0.01 0.01 65 1009.0
20260509135020 73 98 0.0 2.0 0.00 0.01 0.01 67 1009.0
20260509134520 73 88 0.0 2.0 0.00 0.01 0.01 65 1009.1
20260509134030 73 150 0.0 2.0 0.00 0.01 0.01 67 1009.2
20260509133520 73 122 1.0 2.0 0.00 0.01 0.01 66 1009.3
20260509133019 73 87 1.0 3.0 0.00 0.01 0.01 65 1009.3
20260509132520 74 115 0.0 3.0 0.00 0.01 0.01 69 1009.2
20260509132031 73 117 0.0 3.0 0.00 0.01 0.01 65 1009.1
20260509131522 73 134 1.0 3.0 0.00 0.01 0.01 64 1009.1
20260509131020 74 108 0.0 3.0 0.00 0.01 0.01 67 1009.1
20260509130520 73 157 1.0 3.0 0.00 0.01 0.01 66 1009.1
20260509130020 73 143 0.0 3.0 0.00 0.01 0.01 69 1009.2
20260509125520 73 121 1.0 3.0 0.00 0.01 0.01 68 1009.2
20260509125020 74 134 0.0 6.0 0.00 0.01 0.01 66 1009.2
20260509124531 74 96 1.0 6.0 0.00 0.01 0.01 65 1009.3
20260509124020 74 120 2.0 4.0 0.00 0.01 0.01 66 1009.4
20260509123520 74 108 0.0 4.0 0.00 0.01 0.01 67 1009.3
20260509123021 74 91 0.0 4.0 0.00 0.01 0.01 70 1009.5
20260509122520 74 115 1.0 4.0 0.00 0.01 0.01 68 1009.4
20260509122031 74 122 0.0 3.0 0.00 0.01 0.01 69 1009.5
20260509121520 74 120 0.0 2.0 0.00 0.01 0.01 69 1009.5
20260509121020 74 131 0.0 4.0 0.00 0.01 0.01 69 1009.6
20260509120520 73 126 1.0 4.0 0.00 0.01 0.01 69 1009.6
20260509120020 73 107 1.0 4.0 0.00 0.01 0.01 69 1009.7
20260509115520 73 129 0.0 4.0 0.00 0.01 0.01 69 1009.8
20260509115020 73 85 2.0 4.0 0.00 0.01 0.01 69 1009.7
20260509114520 73 140 0.0 5.0 0.00 0.01 0.01 70 1009.8
20260509114020 73 154 3.0 5.0 0.00 0.01 0.01 70 1009.9
20260509113521 72 86 1.0 3.0 0.00 0.01 0.01 72 1009.9
20260509113019 72 147 1.0 3.0 0.00 0.01 0.01 72 1009.9
20260509112522 72 119 0.0 2.0 0.00 0.01 0.01 75 1009.8
20260509112031 71 100 0.0 3.0 0.00 0.01 0.01 73 1009.9
20260509111521 71 139 1.0 4.0 0.00 0.01 0.01 72 1009.9
20260509111021 71 80 1.0 4.0 0.00 0.01 0.01 73 1009.9
20260509110521 71 102 1.0 4.0 0.00 0.01 0.01 72 1009.9
20260509110020 71 143 3.0 5.0 0.00 0.01 0.01 73 1009.9
20260509105520 70 86 2.0 6.0 0.00 0.01 0.01 71 1009.9
20260509105020 70 94 1.0 6.0 0.00 0.01 0.01 73 1009.7
20260509104520 71 93 1.0 4.0 0.00 0.01 0.01 74 1009.8
20260509104021 71 112 1.0 6.0 0.00 0.01 0.01 75 1009.8
20260509103531 71 113 3.0 6.0 0.00 0.01 0.01 73 1009.8
20260509103021 71 112 2.0 4.0 0.00 0.01 0.01 73 1009.6
20260509102520 71 77 1.0 5.0 0.00 0.01 0.01 75 1009.6
20260509102020 71 135 3.0 6.0 0.00 0.01 0.01 74 1009.6
20260509101521 71 134 3.0 6.0 0.00 0.01 0.01 76 1009.7
20260509101020 70 131 2.0 5.0 0.00 0.01 0.01 77 1009.6
20260509100531 69 124 2.0 7.0 0.00 0.01 0.01 77 1009.7
20260509100020 69 126 3.0 7.0 0.00 0.01 0.01 75 1009.7
20260509095520 69 94 0.0 4.0 0.00 0.01 0.01 78 1009.7
20260509095021 69 91 2.0 4.0 0.00 0.01 0.01 77 1009.8
20260509094520 69 87 2.0 5.0 0.00 0.01 0.01 80 1009.9
20260509094020 68 116 2.0 5.0 0.00 0.01 0.01 80 1009.9
20260509093520 67 19 1.0 5.0 0.00 0.01 0.01 80 1009.9
20260509093020 68 86 2.0 5.0 0.00 0.01 0.01 79 1009.9
20260509092520 67 131 1.0 4.0 0.00 0.01 0.01 80 1010.0
20260509092021 67 87 2.0 4.0 0.00 0.01 0.01 81 1010.1
20260509091521 66 136 2.0 4.0 0.00 0.01 0.01 83 1010.1
20260509091020 66 101 1.0 4.0 0.00 0.01 0.01 84 1010.1
20260509090520 65 122 2.0 4.0 0.00 0.01 0.01 83 1010.2
20260509090021 65 102 2.0 5.0 0.00 0.01 0.01 85 1010.1
20260509085531 64 140 2.0 4.0 0.00 0.01 0.01 85 1010.1
20260509085021 64 84 2.0 4.0 0.00 0.01 0.01 87 1010.2
20260509084520 63 120 1.0 4.0 0.00 0.01 0.01 88 1010.3
20260509084032 63 101 2.0 4.0 0.00 0.01 0.01 90 1010.4
20260509083520 63 196 0.0 2.0 0.00 0.01 0.01 92 1010.4
20260509083020 62 141 1.0 4.0 0.00 0.01 0.01 92 1010.4
20260509082521 61 131 2.0 4.0 0.00 0.01 0.01 92 1010.4
20260509082021 61 32 1.0 4.0 0.00 0.01 0.01 93 1010.4
20260509081521 61 68 2.0 4.0 0.00 0.01 0.01 94 1010.5
20260509081020 60 106 1.0 5.0 0.00 0.01 0.01 95 1010.6
20260509080520 60 140 3.0 5.0 0.00 0.01 0.01 95 1010.8
20260509080019 59 130 2.0 3.0 0.00 0.01 0.01 96 1010.8
20260509075521 58 105 0.0 3.0 0.00 0.01 0.01 96 1010.9
20260509075020 58 79 1.0 3.0 0.00 0.01 0.01 95 1011.0
20260509074532 57 126 1.0 3.0 0.00 0.01 0.01 96 1010.9
20260509074021 57 87 0.0 2.0 0.00 0.01 0.01 95 1010.9
20260509073521 57 118 0.0 1.0 0.00 0.01 0.01 96 1010.9
20260509073021 56 118 0.0 1.0 0.00 0.01 0.01 95 1010.8
20260509072521 56 118 0.0 1.0 0.00 0.01 0.01 95 1010.8
20260509072022 56 118 0.0 1.0 0.00 0.01 0.01 95 1010.8
20260509071521 56 118 0.0 0.0 0.00 0.01 0.01 95 1010.8
20260509071021 56 118 0.0 0.0 0.00 0.01 0.01 96 1010.7
20260509070521 56 118 0.0 1.0 0.00 0.01 0.01 96 1010.6
20260509070021 56 118 0.0 1.0 0.00 0.01 0.01 96 1010.6
20260509065521 55 191 0.0 0.0 0.00 0.01 0.01 96 1010.6
20260509065021 55 187 0.0 0.0 0.00 0.01 0.01 96 1010.6
20260509064532 55 210 0.0 0.0 0.00 0.01 0.01 96 1010.7
20260509064021 55 210 0.0 0.0 0.00 0.01 0.01 96 1010.6
20260509063521 54 211 0.0 0.0 0.00 0.01 0.01 96 1010.8
20260509063022 54 211 0.0 0.0 0.00 0.01 0.01 96 1010.7
20260509062521 54 210 0.0 0.0 0.00 0.01 0.01 96 1010.7
20260509062021 53 211 0.0 0.0 0.00 0.01 0.01 96 1010.8
20260509061522 53 211 0.0 0.0 0.00 0.01 0.01 96 1010.7
20260509061020 52 211 0.0 0.0 0.00 0.01 0.01 96 1010.8
20260509060522 52 211 0.0 0.0 0.00 0.01 0.01 96 1010.9
20260509060022 52 211 0.0 0.0 0.00 0.01 0.01 96 1010.9
20260509055521 51 211 0.0 0.0 0.00 0.01 0.01 96 1010.9
20260509055020 51 211 0.0 0.0 0.00 0.01 0.01 96 1010.9